Regional Weather Roundup
Issued by NWS Glasgow, MT

Home | Current Version | Previous Version | Text Only | Print | Product List | Glossary On
Versions: 1 2 3 4 5 6 7 8 9 10 11 12 13 14 15 16 17 18 19 20 21 22 23 24 25 26 27 28 29 30 31 32 33 34 35 36 37 38 39 40 41 42 43 44 45 46 47 48 49 50
000
ASUS45 KGGW 050315
RWRGGW
HOURLY REGIONAL WEATHER ROUNDUP FOR NORTHEAST MONTANA
NATIONAL WEATHER SERVICE GLASGOW MONTANA
900 PM MDT TUE AUG 04 2015

NOTE: "FAIR" INDICATES FEW OR NO CLOUDS BELOW 12,000 FEET WITH NO
SIGNIFICANT WEATHER AND/OR OBSTRUCTIONS TO VISISBILITY.

NORTHEAST MONTANA


CITY           SKY/WX    TMP DP  RH WIND       PRES   REMARKS
GLASGOW        CLOUDY    69  61  75 S6        29.90R
PLENTYWOOD       N/A     78  53  41 SE7         N/A
WOLF POINT     LGT RAIN  70  66  87 NE10      29.87F
JORDAN           N/A     64  61  90 W7        29.95S
WINNETT          N/A     69  56  62 E3G12       N/A
SIDNEY         CLOUDY   N/A N/A N/A W15       29.87R
GLENDIVE         N/A    N/A N/A N/A MISG        N/A
MALTA            N/A     73  60  63 SW2         N/A
SCOBEY           N/A     64  55  72 S10       29.90F

FORT PECK REPORTS


CITY           SKY/WX    TMP DP  RH WIND       PRES   REMARKS
FORT PECK        N/A     71  64  78 SE8         N/A
THE PINES        N/A     67  63  87 SW8G20      N/A

SOUTHEAST MONTANA


CITY           SKY/WX    TMP DP  RH WIND       PRES   REMARKS
BILLINGS       PTCLDY    70  50  49 SW10      30.00R
MILES CITY     LGT RAIN  66  59  78 S12G22    29.94F
BAKER          LGT RAIN  65  62  90 W13       29.99R
LIVINGSTON     PTCLDY    65  54  67 E6        30.03S

CENTRAL MONTANA


CITY           SKY/WX    TMP DP  RH WIND       PRES   REMARKS
HAVRE          MOCLDY    73  54  51 SW10      29.86R
LEWISTOWN      MOCLDY    68  49  50 VRB3      29.99R
GREAT FALLS    PTCLDY    69  51  52 S7        29.93S
CUT BANK       MOCLDY    70  40  33 SW8       29.90S
HELENA         CLEAR     72  53  51 CALM      29.93R
BUTTE          MOCLDY    64  49  57 W5        30.10R
BOZEMAN        PTCLDY    66  52  60 E3        30.02R

WESTERN MONTANA


CITY           SKY/WX    TMP DP  RH WIND       PRES   REMARKS
MISSOULA       PTCLDY    75  42  30 SE8       29.91R
KALISPELL      NOT AVBL

NORTH DAKOTA


CITY           SKY/WX    TMP DP  RH WIND       PRES   REMARKS
WILLISTON      CLOUDY    79  55  43 SE16G28   29.89R
DICKINSON      CLOUDY    70  56  61 SE10      29.93R
MINOT          MOCLDY    67  51  56 E7        29.97R
BISMARCK       PTCLDY    69  61  75 SE8       29.96R

SOUTHERN SASKATCHEWAN


CITY           SKY/WX    TMP DP  RH WIND       PRES   REMARKS
REGINA         CLOUDY    68  55  64 CALM      29.91R
ESTEVAN        CLOUDY    68  55  64 SE13G22   29.94R
SWIFT CURRENT  CLOUDY    68  57  68 SW8       29.85R HAZE




USA.gov is the U.S. government's official web portal to all federal, state and local government web resources and services.